ヤング彗星

C/2019 K5 ( Young )

English version
Home page
Updated on December 9, 2019

---------------------------------------------------------------------

・ プロフィール

発見日 2019年5月25日
発見光度 17.1等
発見者 David Young (Asteroid Terrestrial-Impact Last Alert System (ATLAS) search program)

・ 写真集

・ 軌道要素

Epoch 2019 June 6.0 TT = JDT 2458640.5
T 2019 June 22.74522 TT                                 Williams
q   2.0350402            (2000.0)            P               Q
z  +0.0066365      Peri.  174.91367     +0.99066963     +0.13566821
 +/-0.0000020      Node   177.18872     -0.13249462     +0.98101705
e   0.9864944      Incl.   15.31570     -0.03191974     +0.13856294
From 421 observations 2018 June 17-2019 Nov. 1, mean residual 0".4.

・ 星図

・ 光度変化

        m1 = 10.0 + 5 logΔ + 13.5 log r(t - 50)

---------------------------------------------------------------------

軌道要素はM.P.E.C. 2019-V116に掲載されたものです。
星図はステラナビゲータ Ver.10 (アストロアーツ) で作成したものです。
光度グラフはComet for Windowsで作成したものです。

---------------------------------------------------------------------

Copyright(C) Seiichi Yoshida (comet@aerith.net). All rights reserved.